Cloud_Cover
100 100 100 100 100 100 100 100 100 100 100 100 100 94 58 85 93 66 41 99 100 100 100 95 96 98 100 92 56 88 51 23
100 100 100 100 100 100 100 100 100 100 100 100 100 100 88 100 100 94 7 82 100 100 56 51 84 5 67 100 100 99 22 6
100 100 100 100 100 100 100 100 100 100 100 100 100 100 99 100 100 100 99 78 15 100 100 93 100 100 100 96 32 8 46 100
100 100 100 100 100 100 100 100 100 100 100 100 100 100 100 100 100 100 96 32 96 100 100 99 40 47 52 93 5 11 93 6
100 100 100 100 100 100 100 100 100 100 100 100 100 100 100 100 100 100 100 74 70 92 94 100 85 94 52 42 5 5 5 5
100 100 100 100 100 100 100 100 100 100 100 100 100 100 100 100 100 96 100 94 100 100 24 100 99 95 56 5 17 5 5 5
100 100 100 100 100 100 100 100 100 100 100 100 100 100 100 100 99 100 91 100 89 36 5 76 98 78 35 43 49 69 5 5
100 100 100 100 100 100 100 100 100 100 100 100 100 100 100 100 100 100 100 100 5 38 22 29 100 96 100 99 18 5 66 45
100 100 100 100 100 100 100 100 100 100 100 100 100 100 100 100 100 100 100 100 98 98 66 66 100 99 88 5 45 98 71 96
100 100 100 100 100 100 100 100 100 100 100 100 100 100 100 100 100 100 100 100 100 85 78 60 100 100 100 99 87 100 100 100
100 100 100 100 100 100 100 100 100 100 100 100 100 100 100 100 100 100 100 100 100 100 100 100 100 100 100 100 100 100 97 100
100 100 100 100 100 100 100 100 100 100 100 100 100 100 100 100 100 100 100 100 100 100 100 100 100 100 100 100 100 100 100 100
100 100 100 100 100 100 100 100 100 100 100 100 100 100 100 100 100 100 100 100 100 100 100 100 100 100 100 100 100 100 100 100
100 100 100 100 100 100 100 100 100 100 100 100 100 100 100 100 100 100 100 100 100 100 100 100 100 100 100 100 100 100 100 100
83 100 100 100 100 100 100 100 100 100 100 100 100 100 100 100 100 100 100 100 100 100 100 100 100 100 100 100 100 100 100 100
45 65 61 61 100 100 100 100 100 100 100 100 100 100 100 100 100 100 100 100 100 100 100 100 100 100 100 100 100 100 100 100
23 50 7 14 93 99 100 100 100 100 100 100 100 100 100 100 100 100 100 100 100 100 100 100 100 100 100 100 99 100 63 100
38 98 12 4 5 5 5 5 13 12 68 60 70 59 100 100 100 100 100 100 100 100 100 100 100 100 88 52 27 99 100 100
24 38 66 100 92 99 76 67 33 5 7 6 5 14 100 100 100 100 100 100 83 98 84 91 92 7 38 35 86 100 83 100
41 6 2 19 100 42 0 0 3 5 5 30 5 5 90 100 100 100 100 100 100 100 100 100 98 67 95 65 100 100 100 100